CAPE
0 0 0 0 286 215 195 397 299 470 350 365 185 255 270 246 101 71 323 563 733 697 474 382 354 481 456 488 531 628 728 768 682 760 573 559 577 602 604 774 917 983 1080 984 870 911 796 505 442
0 0 8 2 50 99 140 17 121 255 385 216 101 123 61 74 233 233 512 588 536 593 514 371 267 268 274 292 349 389 472 620 632 627 590 570 504 598 540 573 797 927 989 951 892 771 722 511 281
0 0 140 28 0 58 111 12 69 133 192 329 144 21 5 4 107 257 444 641 551 443 396 316 160 117 120 185 287 309 341 385 456 443 426 419 375 359 381 407 635 711 762 844 704 491 306 145 16
0 0 0 3 8 4 6 0 0 1 13 370 195 100 4 0 176 218 394 476 394 419 402 250 188 146 141 149 178 194 247 275 315 299 270 195 269 289 272 364 483 628 626 516 411 257 109 0 49
0 0 0 0 0 6 4 0 0 1 66 159 61 5 1 0 0 0 0 5 8 0 5 30 42 41 51 55 59 133 256 276 258 280 237 205 150 207 247 175 214 236 254 228 185 134 50 5 131
0 0 0 0 0 0 5 62 19 66 34 9 1 2 3 1 0 0 0 0 0 0 0 0 21 5 18 23 13 30 149 271 274 294 264 189 116 24 0 53 44 98 66 59 55 52 16 4 95
3 0 0 0 0 0 0 0 0 0 0 0 0 2 5 0 0 0 0 0 0 0 0 0 0 0 2 53 33 4 17 109 230 247 276 217 139 58 0 0 3 2 18 22 11 4 0 0 29
0 0 0 0 0 0 0 0 0 0 0 0 0 2 4 0 0 0 0 0 0 0 0 0 0 0 0 0 13 111 16 3 7 126 222 279 195 116 28 0 0 0 0 0 0 0 0 0 0
0 0 0 0 0 0 0 0 0 0 0 0 0 0 0 0 0 0 0 0 0 0 0 0 0 0 0 0 1 52 257 192 30 0 0 54 79 73 57 19 0 0 0 0 0 0 0 0 0
0 0 0 0 0 0 0 0 0 0 0 0 0 0 0 0 0 0 0 0 0 0 0 0 0 0 0 0 0 3 22 131 31 0 15 4 0 38 115 119 89 0 0 0 0 0 0 0 0
0 0 0 0 0 0 0 0 0 0 0 0 0 0 0 0 0 0 0 0 0 0 0 0 0 0 0 0 0 0 0 0 0 0 0 16 0 0 0 0 0 3 0 0 0 0 0 0 0
0 0 0 0 0 0 0 0 0 0 0 0 0 0 0 0 0 0 0 0 0 0 0 0 0 0 0 0 0 0 0 0 0 0 1 2 0 0 98 68 8 7 3 0 0 0 0 0 0
0 0 0 0 0 0 0 0 0 0 0 0 0 0 0 0 0 0 0 0 0 0 0 0 0 0 0 0 0 0 0 0 0 0 0 1 2 2 1 120 89 2 0 0 0 0 0 0 0
0 0 0 0 0 0 0 0 0 0 0 0 0 0 0 0 0 0 0 0 0 0 0 0 0 0 0 0 0 0 0 0 0 0 0 0 0 2 3 2 44 100 66 6 0 0 0 0 0
0 0 0 0 0 0 0 0 0 0 0 0 0 0 0 0 0 0 0 0 0 0 0 0 0 0 0 0 0 0 0 0 0 0 0 0 0 0 0 0 0 2 2 31 7 0 0 0 3
0 0 0 0 0 0 0 0 0 0 0 0 0 0 0 0 0 0 0 0 0 0 0 0 0 0 0 0 0 0 0 0 0 0 0 0 0 0 0 0 0 2 2 9 9 31 7 15 1
0 0 0 0 0 0 0 0 0 0 0 0 0 0 0 0 0 0 0 0 0 0 0 0 0 0 0 0 0 0 0 0 0 0 0 0 0 0 0 0 0 0 1 1 2 3 12 35 15
0 0 0 0 0 0 0 0 0 0 0 0 0 0 0 0 0 0 0 0 0 0 0 0 0 0 0 0 0 0 0 0 0 0 0 0 0 0 0 0 0 0 0 1 1 0 3 4 11
0 0 0 0 0 0 0 0 0 0 0 0 0 0 0 0 0 0 0 0 0 0 0 0 0 0 0 0 0 0 0 0 0 0 0 0 0 0 0 0 0 0 0 2 0 0 0 3 0
0 0 0 0 0 0 0 0 0 0 0 0 0 0 0 0 0 0 0 0 0 0 0 0 0 0 0 0 0 0 0 0 0 0 0 0 0 0 0 0 0 0 0 0 0 0 0 0 0
0 0 0 0 0 0 0 0 0 0 0 0 0 0 0 0 0 0 0 0 0 0 0 0 0 0 0 0 0 0 0 0 0 0 0 0 0 0 0 0 0 0 0 0 0 0 1 0 0
0 0 0 0 0 0 0 0 0 0 0 0 0 0 0 0 0 0 0 0 0 0 0 0 0 0 0 0 0 0 0 0 0 0 0 0 0 0 0 0 0 0 0 0 0 0 0 0 0
0 0 0 0 0 0 0 0 0 0 0 0 0 0 0 0 0 0 0 0 0 0 0 0 0 0 0 0 0 0 0 0 0 0 0 0 0 0 0 0 0 0 0 0 0 0 0 0 0
0 0 0 0 0 0 0 0 0 0 0 0 0 0 0 0 0 0 0 0 0 0 0 0 0 0 0 0 0 0 0 0 0 0 0 0 0 0 0 0 0 0 0 0 0 0 0 0 0
0 0 0 0 0 0 0 0 0 0 0 0 0 0 0 0 0 0 0 0 0 0 0 0 0 0 0 0 0 0 0 0 0 0 0 0 0 0 0 0 0 0 0 0 0 0 0 0 0
0 0 0 0 0 0 0 0 0 0 0 0 0 0 0 0 0 0 0 0 0 0 0 0 0 0 0 0 0 0 0 0 0 0 0 0 0 0 0 0 0 0 0 0 0 0 0 0 0
0 0 0 0 0 0 0 0 0 0 0 0 0 0 0 0 0 0 0 0 0 0 0 0 0 0 0 0 0 0 0 0 0 0 0 0 0 0 0 0 0 0 0 0 0 0 0 0 0
0 0 0 0 0 0 0 0 0 0 0 0 0 0 0 0 0 0 0 0 0 0 0 0 0 0 0 0 0 0 0 0 0 0 0 0 0 0 0 0 0 0 0 0 0 0 0 0 0
0 0 0 0 0 0 0 0 0 0 0 0 0 0 0 0 0 0 0 0 0 0 0 0 0 0 0 0 0 0 0 0 0 0 0 0 0 0 0 0 0 0 0 0 0 0 0 0 0
0 0 0 0 0 0 0 0 0 0 0 0 0 0 0 0 0 0 0 0 0 0 0 0 0 0 0 0 0 0 0 0 0 0 0 0 0 0 0 0 0 0 0 0 0 0 0 0 0
CIN
-0 -0 -0 -0 -107 -185 -165 -44 -63 -31 -66 -55 -137 -106 -65 -78 -130 -108 -2 -3 -3 -1 -17 -33 -36 -22 -21 -16 -9 -3 -0 -0 -4 -2 -7 -8 -8 -4 -6 -3 -2 -0 -0 -0 -0 -0 -0 -8 -11
-0 -0 -285 -142 -180 -128 -104 -149 -135 -85 -46 -80 -155 -109 -178 -147 -52 -40 -4 -3 -7 -0 -3 -20 -35 -27 -20 -14 -13 -14 -9 -1 -2 -3 -4 -4 -6 -3 -3 -10 -3 -0 -0 -0 -0 -0 -0 -12 -49
-0 -0 -426 -295 -0 -169 -110 -182 -128 -73 -53 -24 -89 -132 -75 -68 -78 -35 -6 -1 -10 -0 -8 -20 -64 -71 -56 -28 -7 -7 -7 -4 -4 -3 -4 -5 -5 -6 -11 -21 -10 -8 -0 -0 -3 -26 -53 -103 -203
-0 -0 -0 -221 -247 -45 -261 -0 -4 -56 -30 -24 -53 -91 -97 -0 -59 -23 -16 -8 -9 -0 -0 -26 -57 -78 -69 -48 -33 -25 -11 -17 -3 -5 -13 -22 -14 -14 -20 -25 -28 -16 -12 -30 -56 -99 -167 -3 -176
-0 -0 -0 -0 -0 -29 -155 -14 -0 -12 -93 -25 -67 -67 -0 -0 -0 -0 -10 -147 -151 -0 -201 -167 -170 -175 -169 -153 -155 -73 -11 -11 -12 -4 -11 -19 -43 -32 -38 -82 -76 -89 -87 -103 -118 -144 -235 -309 -162
-0 -0 -0 -0 -0 -0 -129 -89 -20 -20 -41 -52 -0 -0 -0 -0 -0 -0 -0 -0 -0 -0 -0 -0 -212 -163 -205 -219 -235 -203 -69 -25 -16 -6 -5 -34 -90 -204 -0 -168 -174 -149 -177 -183 -178 -191 -270 -109 -161
-328 -0 -0 -0 -0 -0 -0 -0 -0 -0 -0 -0 -0 -0 -0 -0 -0 -0 -0 -0 -0 -0 -0 -0 -0 -0 -49 -136 -197 -257 -228 -132 -49 -35 -17 -25 -75 -173 -0 -0 -47 -51 -233 -235 -261 -285 -0 -0 -220
-0 -0 -0 -0 -0 -0 -0 -0 -0 -0 -0 -0 -0 -0 -0 -0 -0 -0 -0 -0 -0 -0 -0 -0 -0 -0 -0 -0 -203 -122 -247 -266 -230 -104 -41 -23 -44 -92 -234 -0 -0 -0 -0 -0 -0 -0 -0 -0 -0
-0 -0 -0 -0 -0 -0 -0 -0 -0 -0 -0 -0 -0 -0 -0 -0 -0 -0 -0 -0 -0 -0 -0 -0 -0 -0 -0 -0 -62 -185 -57 -94 -131 -0 -0 -139 -113 -121 -130 -189 -0 -0 -0 -0 -0 -0 -0 -0 -0
-0 -0 -0 -0 -0 -0 -0 -0 -0 -0 -0 -0 -0 -0 -0 -0 -0 -0 -0 -0 -0 -0 -0 -0 -0 -0 -0 -0 -0 -67 -196 -117 -192 -0 -199 -99 -0 -153 -86 -76 -81 -0 -0 -0 -0 -0 -0 -0 -0
-0 -0 -0 -0 -0 -0 -0 -0 -0 -0 -0 -0 -0 -0 -0 -0 -0 -0 -0 -0 -0 -0 -0 -0 -0 -0 -0 -0 -0 -0 -0 -0 -0 -0 -0 -175 -18 -0 -0 -0 -0 -31 -0 -0 -0 -0 -0 -0 -0
-0 -0 -0 -0 -0 -0 -0 -0 -0 -0 -0 -0 -0 -0 -0 -0 -0 -0 -0 -0 -0 -0 -0 -0 -0 -0 -0 -0 -0 -0 -0 -0 -0 -0 -0 -0 -0 -0 -98 -115 -185 -204 -183 -0 -0 -0 -0 -0 -0
-0 -0 -0 -0 -0 -0 -0 -0 -0 -0 -0 -0 -0 -0 -0 -0 -0 -0 -0 -0 -0 -0 -0 -0 -0 -0 -0 -0 -0 -0 -0 -0 -0 -0 -0 -0 -0 -0 -0 -68 -103 -84 -0 -0 -0 -0 -0 -0 -0
-0 -0 -0 -0 -0 -0 -0 -0 -0 -0 -0 -0 -0 -0 -0 -0 -0 -0 -0 -0 -0 -0 -0 -0 -0 -0 -0 -0 -0 -0 -0 -0 -0 -0 -0 -0 -0 -0 -0 -0 -69 -80 -96 -135 -0 -0 -0 -0 -0
-0 -0 -0 -0 -0 -0 -0 -0 -0 -0 -0 -0 -0 -0 -0 -0 -0 -0 -0 -0 -0 -0 -0 -0 -0 -0 -0 -0 -0 -0 -0 -0 -0 -0 -0 -0 -0 -0 -0 -0 -0 -0 -0 -97 -114 -0 -0 -8 -109
-0 -0 -0 -0 -0 -0 -0 -0 -0 -0 -0 -0 -0 -0 -0 -0 -0 -0 -0 -0 -0 -0 -0 -0 -0 -0 -0 -0 -0 -0 -0 -0 -0 -0 -0 -0 -0 -0 -0 -0 -0 -0 -0 -90 -88 -114 -96 -142 -62
-0 -0 -0 -0 -0 -0 -0 -0 -0 -0 -0 -0 -0 -0 -0 -0 -0 -0 -0 -0 -0 -0 -0 -0 -0 -0 -0 -0 -0 -0 -0 -0 -0 -0 -0 -0 -0 -0 -0 -0 -0 -0 -0 -0 -0 -47 -63 -74 -109
-0 -0 -0 -0 -0 -0 -0 -0 -0 -0 -0 -0 -0 -0 -0 -0 -0 -0 -0 -0 -0 -0 -0 -0 -0 -0 -0 -0 -0 -0 -0 -0 -0 -0 -0 -0 -0 -0 -0 -0 -0 -0 -0 -0 -0 -0 -0 -30 -29
-0 -0 -0 -0 -0 -0 -0 -0 -0 -0 -0 -0 -0 -0 -0 -0 -0 -0 -0 -0 -0 -0 -0 -0 -0 -0 -0 -0 -0 -0 -0 -0 -0 -0 -0 -0 -0 -0 -0 -0 -0 -0 -0 -0 -0 -0 -0 -0 -0
-0 -0 -0 -0 -0 -0 -0 -0 -0 -0 -0 -0 -0 -0 -0 -0 -0 -0 -0 -0 -0 -0 -0 -0 -0 -0 -0 -0 -0 -0 -0 -0 -0 -0 -0 -0 -0 -0 -0 -0 -0 -0 -0 -0 -0 -0 -0 -0 -0
-0 -0 -0 -0 -0 -0 -0 -0 -0 -0 -0 -0 -0 -0 -0 -0 -0 -0 -0 -0 -0 -0 -0 -0 -0 -0 -0 -0 -0 -0 -0 -0 -0 -0 -0 -0 -0 -0 -0 -0 -0 -0 -0 -0 -0 -0 -0 -0 -0
-0 -0 -0 -0 -0 -0 -0 -0 -0 -0 -0 -0 -0 -0 -0 -0 -0 -0 -0 -0 -0 -0 -0 -0 -0 -0 -0 -0 -0 -0 -0 -0 -0 -0 -0 -0 -0 -0 -0 -0 -0 -0 -0 -0 -0 -0 -0 -0 -0
-0 -0 -0 -0 -0 -0 -0 -0 -0 -0 -0 -0 -0 -0 -0 -0 -0 -0 -0 -0 -0 -0 -0 -0 -0 -0 -0 -0 -0 -0 -0 -0 -0 -0 -0 -0 -0 -0 -0 -0 -0 -0 -0 -0 -0 -0 -0 -0 -0
-0 -0 -0 -0 -0 -0 -0 -0 -0 -0 -0 -0 -0 -0 -0 -0 -0 -0 -0 -0 -0 -0 -0 -0 -0 -0 -0 -0 -0 -0 -0 -0 -0 -0 -0 -0 -0 -0 -0 -0 -0 -0 -0 -0 -0 -0 -0 -0 -0
-0 -0 -0 -0 -0 -0 -0 -0 -0 -0 -0 -0 -0 -0 -0 -0 -0 -0 -0 -0 -0 -0 -0 -0 -0 -0 -0 -0 -0 -0 -0 -0 -0 -0 -0 -0 -0 -0 -0 -0 -0 -0 -0 -0 -0 -0 -0 -0 -0
-0 -0 -0 -0 -0 -0 -0 -0 -0 -0 -0 -0 -0 -0 -0 -0 -0 -0 -0 -0 -0 -0 -0 -0 -0 -0 -0 -0 -0 -0 -0 -0 -0 -0 -0 -0 -0 -0 -0 -0 -0 -0 -0 -0 -0 -0 -0 -0 -0
-0 -0 -0 -0 -0 -0 -0 -0 -0 -0 -0 -0 -0 -0 -0 -0 -0 -0 -0 -0 -0 -0 -0 -0 -0 -0 -0 -0 -0 -0 -0 -0 -0 -0 -0 -0 -0 -0 -0 -0 -0 -0 -0 -0 -0 -0 -0 -0 -0
-0 -0 -0 -0 -0 -0 -0 -0 -0 -0 -0 -0 -0 -0 -0 -0 -0 -0 -0 -0 -0 -0 -0 -0 -0 -0 -0 -0 -0 -0 -0 -0 -0 -0 -0 -0 -0 -0 -0 -0 -0 -0 -0 -0 -0 -0 -0 -0 -0
-0 -0 -0 -0 -0 -0 -0 -0 -0 -0 -0 -0 -0 -0 -0 -0 -0 -0 -0 -0 -0 -0 -0 -0 -0 -0 -0 -0 -0 -0 -0 -0 -0 -0 -0 -0 -0 -0 -0 -0 -0 -0 -0 -0 -0 -0 -0 -0 -0
-0 -0 -0 -0 -0 -0 -0 -0 -0 -0 -0 -0 -0 -0 -0 -0 -0 -0 -0 -0 -0 -0 -0 -0 -0 -0 -0 -0 -0 -0 -0 -0 -0 -0 -0 -0 -0 -0 -0 -0 -0 -0 -0 -0 -0 -0 -0 -0 -0
Wind_Speed
19 17 16 13 11 5 4 5 3 4 6 11 13 17 16 12 10 16 8 9 19 20 24 25 24 24 25 26 27 27 28 27 27 27 26 21 10 9 12 15 19 23 24 23 24 25 27 26 19
15 15 12 10 8 6 5 5 2 4 7 7 9 8 12 15 2 5 3 3 11 2 12 20 25 23 24 23 25 26 27 27 27 26 22 8 11 9 8 11 16 21 24 23 19 20 21 18 9
11 13 11 11 10 7 4 4 8 5 9 6 7 5 7 7 4 4 3 3 10 4 3 2 13 24 24 24 23 24 25 26 26 25 19 11 11 12 10 10 14 18 21 22 20 17 17 12 9
14 9 6 7 4 3 3 5 7 4 5 4 5 7 4 11 7 4 5 7 10 9 6 12 16 18 26 25 23 23 23 24 25 25 22 15 13 12 12 12 13 16 19 22 22 19 15 12 10
7 7 9 5 4 3 9 11 24 25 17 6 5 3 3 7 8 9 9 12 14 15 14 16 17 20 22 24 25 25 24 23 22 23 23 19 15 14 12 12 14 16 17 18 19 19 16 16 17
9 6 8 5 5 2 5 11 14 12 19 9 20 0 4 7 8 9 11 15 16 18 18 18 20 21 21 23 23 24 24 24 21 19 22 21 18 16 15 14 13 13 15 15 16 17 17 17 20
8 5 6 7 4 1 5 9 14 15 15 13 18 4 5 7 9 11 17 18 18 20 20 19 19 21 22 23 23 23 23 23 22 8 15 18 19 18 16 15 14 14 13 14 14 15 16 18 18
4 2 3 4 1 3 7 8 13 16 14 20 20 20 13 9 10 15 18 18 19 21 22 20 21 23 23 23 23 23 22 22 22 21 20 10 13 16 18 17 16 15 14 14 14 14 14 15 16
5 1 3 3 5 9 11 16 20 22 24 24 23 24 19 17 15 17 18 19 21 22 23 23 24 23 23 23 23 23 22 22 22 21 20 19 17 16 16 17 18 16 16 16 15 15 15 14 14
3 1 6 5 12 14 13 14 14 16 21 21 21 23 20 18 19 19 21 22 23 23 23 24 24 24 24 24 23 23 23 23 23 23 22 20 18 18 19 20 21 20 17 17 17 17 16 14 12
3 15 15 10 15 17 19 17 13 16 18 19 19 19 19 21 20 21 21 22 23 23 24 25 25 25 24 24 24 24 24 24 23 24 24 22 20 21 21 21 22 20 21 21 20 18 17 16 12
22 11 9 6 7 15 17 18 21 20 19 19 19 18 19 21 21 21 21 23 23 24 25 25 25 25 25 24 25 24 24 25 25 25 25 24 23 23 23 23 23 19 19 21 22 22 20 15 14
20 14 15 17 18 21 22 19 19 20 19 19 18 19 20 20 21 21 22 22 24 25 26 26 26 25 25 25 25 25 25 25 26 26 26 26 25 25 25 24 23 23 22 21 23 21 21 21 21
18 20 18 18 17 15 17 13 14 15 17 18 19 21 21 21 21 21 22 24 26 26 27 28 27 26 26 26 26 26 26 26 26 26 27 27 26 26 25 26 25 25 25 25 25 23 19 22 23
23 21 15 9 14 19 16 16 18 17 18 19 20 20 22 22 23 24 24 25 26 27 28 29 28 27 26 26 26 26 26 26 27 27 28 28 27 27 27 26 27 28 28 28 26 25 25 24 23
26 16 18 24 18 12 16 17 19 18 19 20 20 20 21 21 22 23 24 25 26 28 29 29 28 28 27 27 27 27 27 27 27 28 28 28 28 28 27 28 29 29 29 29 28 27 27 24 26
12 11 19 19 16 18 17 17 17 16 17 18 18 18 19 20 21 22 23 24 26 28 30 30 30 28 27 26 27 27 27 28 28 28 29 29 29 29 28 29 29 29 28 29 30 28 28 28 30
20 18 20 17 16 15 17 15 16 14 14 16 16 16 18 19 20 21 23 24 25 27 29 30 30 29 28 26 26 27 27 28 29 29 30 30 30 30 30 29 30 29 29 29 30 31 31 29 29
23 20 19 17 17 16 15 15 14 12 12 13 13 15 16 18 19 19 22 23 24 26 28 29 29 29 29 28 27 27 28 29 29 29 30 30 31 31 31 31 30 30 29 30 31 30 31 28 29
18 19 19 17 16 16 14 13 10 9 9 10 11 12 14 17 17 18 20 21 23 24 25 27 29 29 29 29 28 26 27 28 28 29 30 30 31 31 31 32 31 31 30 30 32 31 31 28 29
17 17 17 15 15 17 15 12 7 6 7 8 9 11 13 13 16 16 18 20 21 22 23 24 27 28 29 29 28 28 27 26 29 30 31 31 31 31 31 31 31 31 30 31 31 32 31 32 30
14 14 13 14 14 15 12 14 5 3 3 4 5 9 10 12 15 15 16 18 19 20 21 21 23 25 26 27 29 30 29 29 29 29 30 31 31 31 31 31 31 31 31 32 31 31 31 31 32
12 13 13 13 15 15 10 16 15 5 1 2 2 5 7 11 13 14 15 17 18 18 18 17 18 21 23 25 27 28 29 28 28 28 30 31 31 31 32 31 32 32 31 32 32 32 32 31 30
12 14 16 17 16 14 10 9 17 11 1 1 2 2 5 9 12 15 16 17 17 16 16 15 15 17 19 21 23 25 27 28 30 30 30 30 30 30 31 31 31 31 32 32 32 32 32 32 31
13 11 16 15 14 13 15 12 11 12 9 4 3 2 3 7 10 13 14 16 18 18 15 14 13 15 16 16 16 18 21 23 25 26 26 27 29 29 31 30 30 30 30 31 32 32 33 33 32
10 11 14 17 14 17 15 16 18 17 14 6 3 3 4 6 8 11 13 15 18 18 15 12 12 13 14 14 14 16 18 20 23 24 26 26 27 27 28 29 30 30 29 29 30 31 32 33 32
11 11 13 17 18 21 17 18 18 19 16 9 5 4 3 5 8 10 12 14 16 16 15 13 13 14 15 13 14 15 19 20 22 23 24 26 26 26 27 28 28 29 28 28 28 30 31 32 31
11 11 15 17 22 23 21 20 20 17 14 10 5 3 4 7 9 11 12 13 14 17 20 19 19 17 17 17 17 18 20 21 22 23 23 24 26 25 26 26 27 28 28 27 27 29 29 31 31
11 12 15 15 17 22 24 23 18 16 11 8 4 4 4 7 9 10 11 15 19 22 25 27 26 24 21 20 20 22 22 23 24 24 23 24 25 25 26 27 27 27 29 27 27 29 30 32 32
12 12 11 16 18 18 21 25 22 19 9 6 7 7 8 10 12 18 24 28 30 32 34 35 35 33 31 32 29 25 26 27 26 26 25 26 26 26 27 28 29 28 29 28 28 29 30 32 33
Wind_Direction
266 246 223 236 242 247 258 299 33 344 7 16 32 41 38 10 342 36 346 353 33 56 104 98 98 95 89 86 79 70 62 57 54 52 48 32 0 2 20 28 37 48 53 54 57 58 58 54 33
246 222 225 241 206 197 252 307 11 351 17 24 21 2 23 24 294 341 286 236 6 259 143 113 93 95 91 90 84 79 72 61 56 51 32 341 358 355 357 13 28 43 57 56 45 45 47 28 349
221 219 220 226 219 221 246 344 36 11 350 355 3 287 293 284 285 257 273 277 1 311 231 240 358 85 88 85 89 86 79 71 57 51 18 348 353 4 355 360 18 37 53 55 48 33 24 346 320
218 224 233 154 147 267 57 358 25 1 291 297 323 344 292 342 295 280 325 341 351 341 318 344 350 356 35 73 83 84 88 81 73 59 32 359 358 355 357 2 13 35 50 60 58 38 9 338 314
194 206 183 164 155 108 55 40 71 144 149 328 344 13 3 325 335 358 354 356 359 358 351 350 351 358 10 25 40 53 75 85 87 73 55 18 357 356 343 353 13 36 45 50 51 41 13 355 2
193 203 163 128 185 68 20 36 33 11 42 13 60 259 303 271 344 337 352 4 1 5 359 355 359 0 359 13 16 21 28 39 86 97 74 49 17 2 359 356 358 13 32 40 41 36 18 9 31
104 116 119 102 116 103 312 352 19 20 23 6 64 255 256 326 328 347 11 10 3 6 3 354 350 355 358 5 13 19 18 19 15 96 118 90 53 16 353 351 359 2 8 17 24 28 28 26 34
152 117 152 233 209 304 293 7 12 33 10 77 59 56 20 323 320 0 12 5 3 2 1 349 350 356 354 1 359 4 17 15 18 16 359 215 134 76 15 358 344 347 358 355 353 359 5 16 28
299 100 70 281 310 51 34 56 48 49 52 44 52 57 44 17 3 7 5 2 2 359 355 353 352 349 351 359 357 357 359 359 359 5 5 15 349 288 269 324 357 356 344 341 345 342 344 351 10
260 302 266 5 63 66 50 43 44 47 47 42 43 45 34 19 11 7 7 7 2 358 352 353 351 347 346 353 353 354 359 1 358 348 341 349 355 357 338 307 290 311 347 346 337 330 333 343 354
271 58 69 58 66 66 62 49 39 40 31 33 38 34 23 24 17 14 7 2 3 355 353 350 351 349 351 351 353 355 356 353 351 345 341 339 340 334 332 330 322 327 319 318 328 332 330 331 348
66 54 62 56 50 53 50 53 48 46 50 47 37 26 23 21 18 13 8 5 1 358 352 348 349 353 353 353 351 350 350 348 344 343 340 338 336 333 330 326 323 330 331 323 319 314 320 330 332
62 66 63 68 61 58 61 44 50 45 47 39 31 25 25 25 21 17 14 8 4 1 357 355 354 353 351 351 350 350 347 346 343 341 338 336 332 328 327 327 329 325 322 322 317 318 316 309 310
76 75 71 66 54 33 44 10 16 31 37 29 27 29 29 27 22 15 8 4 4 2 359 357 356 355 354 353 350 349 347 345 345 342 338 336 334 327 326 323 322 322 321 318 314 313 316 309 307
84 73 55 355 25 61 23 12 47 58 41 35 32 32 31 26 23 21 20 15 10 7 3 360 359 0 360 357 355 353 351 348 345 343 342 339 336 332 328 325 320 316 313 314 316 314 308 306 308
99 183 101 131 156 234 72 66 91 81 58 51 44 36 30 23 20 19 18 17 12 9 6 3 360 360 1 1 359 357 354 353 350 346 343 341 340 337 333 329 323 319 315 312 312 311 307 309 310
215 238 89 169 161 122 71 74 115 91 65 55 48 40 30 22 14 11 10 11 10 8 6 4 2 0 1 1 1 0 359 356 352 352 349 345 342 339 336 333 329 326 323 317 313 311 311 304 303
174 188 174 188 168 38 47 65 103 89 71 59 52 45 40 30 20 13 12 12 11 9 9 7 8 5 4 4 2 360 358 356 355 354 352 350 347 345 342 337 332 330 328 326 323 316 309 305 302
107 89 85 68 59 53 66 77 95 87 68 55 48 41 34 25 20 17 12 9 9 7 6 5 5 3 1 357 353 349 349 351 351 351 351 351 350 349 348 344 340 337 333 329 326 324 319 315 306
78 85 89 74 25 49 69 71 77 81 68 51 49 43 33 22 22 20 18 17 14 14 13 10 8 6 5 4 360 357 352 354 354 354 353 353 353 353 353 351 348 345 339 336 332 329 320 319 319
71 89 95 85 41 25 55 38 65 59 32 32 33 29 28 32 23 24 22 18 18 18 19 18 18 17 13 11 6 2 358 355 350 349 350 351 352 352 352 352 352 352 350 340 337 333 328 318 315
57 77 67 67 39 26 50 26 56 84 75 41 41 24 28 30 28 31 28 20 20 18 21 27 28 24 22 20 14 10 5 360 358 356 354 353 355 355 355 354 353 352 351 347 344 345 338 330 319
36 43 52 45 22 22 35 12 12 54 79 158 105 36 33 28 27 27 25 19 20 20 28 35 34 27 23 19 15 11 8 7 2 357 353 352 352 353 354 355 355 353 354 350 348 344 342 341 335
61 25 8 6 9 11 21 25 8 21 39 66 121 65 39 25 23 19 19 17 17 21 29 34 36 32 29 26 21 16 11 8 3 2 359 356 356 357 357 357 356 357 354 354 353 351 348 343 339
2 25 3 9 13 12 16 15 359 13 13 36 162 129 52 23 19 16 18 16 14 17 28 32 33 30 28 35 40 35 29 23 19 16 14 9 6 6 360 2 1 360 359 357 356 355 353 348 343
4 0 360 356 7 3 12 360 4 2 2 25 111 114 52 24 15 11 10 8 6 9 18 26 26 24 21 24 29 26 23 19 14 12 7 4 2 2 359 357 358 359 -0 1 0 359 356 354 350
357 348 1 348 351 343 352 354 354 358 7 29 66 82 43 12 4 3 2 359 359 360 3 9 7 5 3 7 9 9 2 3 4 6 5 1 358 356 354 354 354 356 355 358 358 356 353 354 354
350 8 346 344 339 341 347 349 348 360 6 18 43 62 18 359 353 349 350 350 350 345 341 342 343 344 345 346 346 347 346 347 350 352 355 356 354 353 351 350 349 349 349 352 353 351 351 350 350
341 340 344 348 344 339 341 347 359 356 4 16 32 20 7 351 343 341 342 341 337 334 328 325 327 330 331 332 332 332 334 334 336 340 344 345 347 348 346 344 342 342 341 343 344 344 342 342 341
334 334 338 333 335 340 340 339 354 354 354 0 0 355 345 337 333 332 330 325 324 323 319 315 316 317 318 318 321 323 323 324 326 328 331 333 335 337 338 336 334 334 334 335 335 335 335 334 334